GW0103 Weather Reports


time (UTC)temp
C
wind
direction
speed
KPH
gust
KPH
rain 1hr
cm
rain 24hr
cm
rain mn
cm
humidity
%
barometer
mb
20260504193030 21 236 4.8 12.9 0.00 0.00 0.00 34 1002.0
20260504192027 21 222 4.8 9.7 0.00 0.00 0.00 33 1002.1
20260504191021 21 198 4.8 22.5 0.00 0.00 0.00 36 1002.2
20260504190016 21 193 4.8 17.7 0.00 0.00 0.00 36 1002.2
20260504185032 21 220 4.8 12.9 0.00 0.00 0.00 36 1002.2
20260504184028 20 199 3.2 11.3 0.00 0.00 0.00 35 1002.2
20260504183024 20 158 4.8 12.9 0.00 0.00 0.00 36 1002.3
20260504182039 19 288 3.2 9.7 0.00 0.00 0.00 36 1002.5
20260504181036 18 323 4.8 14.5 0.00 0.00 0.00 37 1002.6
20260504180032 18 165 3.2 12.9 0.00 0.00 0.00 37 1002.6
20260504175027 18 218 4.8 14.5 0.00 0.00 0.00 37 1002.7
20260504174022 19 193 3.2 6.4 0.00 0.00 0.00 36 1002.7
20260504173017 20 189 8.0 14.5 0.00 0.00 0.00 34 1002.8
20260504172033 21 202 3.2 17.7 0.00 0.00 0.00 35 1002.8
20260504171030 20 207 4.8 14.5 0.00 0.00 0.00 34 1002.9
20260504151034 18 52 3.2 12.9 0.00 0.00 0.00 38 1003.7
20260504141028 15 264 4.8 12.9 0.00 0.00 0.00 43 1004.3
20260504081030 2 59 0.0 3.2 0.00 0.03 0.03 94 1005.4
20260504050530 0 0.0 0.0 0.00 0.03 0.03 97 1005.8
20260504045526 0 0.0 0.0 0.00 0.03 0.03 96 1005.9
20260504044522 -1 0.0 0.0 0.00 0.03 0.03 96 1006.0
20260504043517 -1 0.0 0.0 0.00 0.03 0.03 95 1005.9
20260504042555 -1 46 0.0 1.6 0.00 0.03 0.03 95 1005.8
20260504041528 -1 0.0 0.0 0.00 0.03 0.03 95 1005.8
20260504040525 -1 0.0 0.0 0.00 0.03 0.03 94 1005.7
20260504035519 0 0.0 0.0 0.00 0.03 0.03 94 1005.7
20260504034535 0 0.0 0.0 0.00 0.03 0.03 93 1005.7
20260504033531 0 0.0 0.0 0.00 0.03 0.03 93 1005.8
20260504032547 0 0.0 0.0 0.00 0.03 0.03 92 1005.7
20260504031522 0 0.0 0.0 0.00 0.03 0.03 91 1005.6
20260504030518 0 0.0 0.0 0.00 0.03 0.03 91 1005.6
20260504025554 0 0.0 0.0 0.00 0.03 0.03 91 1005.6
20260504024529 0 0.0 0.0 0.00 0.03 0.03 90 1005.7
20260504023525 0 0.0 0.0 0.00 0.03 0.03 89 1005.6
20260504022520 1 0.0 0.0 0.00 0.03 0.03 89 1005.6
20260504021516 1 0.0 0.0 0.00 0.08 0.03 88 1005.7
20260504020552 1 0.0 0.0 0.00 0.10 0.03 86 1005.6
20260504015528 1 0.0 0.0 0.00 0.10 0.03 84 1005.5
20260504014530 1 0.0 0.0 0.00 0.10 0.03 83 1005.3
20260504013518 2 0.0 0.0 0.00 0.10 0.03 82 1005.4
20260504012534 2 0.0 0.0 0.00 0.10 0.03 81 1005.3
20260504011530 2 0.0 0.0 0.00 0.10 0.03 77 1005.2
20260504010526 3 0.0 0.0 0.00 0.10 0.03 74 1005.1
20260504005521 3 0.0 0.0 0.00 0.10 0.03 73 1005.0
20260504004517 4 0.0 0.0 0.00 0.10 0.03 70 1004.9
20260504003532 5 0.0 0.0 0.00 0.10 0.03 67 1004.8
20260504002529 5 0.0 0.0 0.00 0.10 0.03 65 1004.7
20260504001524 6 0.0 0.0 0.00 0.10 0.03 63 1004.6
20260504000519 6 0.0 0.0 0.00 0.10 0.03 60 1004.4
20260503235535 6 0.0 0.0 0.00 0.10 0.03 58 1004.4
20260503234612 7 0.0 0.0 0.00 0.10 0.03 56 1004.3
20260503233527 7 0.0 0.0 0.00 0.10 0.03 53 1004.2
20260503232523 8 264 1.6 6.4 0.00 0.10 0.03 51 1004.2
20260503231516 8 11 1.6 11.3 0.00 0.13 0.03 49 1004.1
20260503230535 8 5 0.0 3.2 0.00 0.13 0.03 48 1004.0
20260503225528 9 313 1.6 4.8 0.00 0.15 0.03 48 1003.9
20260503224525 9 14 4.8 9.7 0.00 0.15 0.03 48 1003.8
20260503223520 9 1 3.2 16.1 0.00 0.15 0.03 47 1003.9
20260503222535 9 346 6.4 24.1 0.00 0.15 0.03 46 1003.8
20260503221531 10 331 4.8 12.9 0.00 0.15 0.03 45 1003.8
20260503220527 10 347 6.4 16.1 0.00 0.15 0.03 45 1003.6
20260503215522 10 348 4.8 17.7 0.00 0.20 0.03 43 1003.5
20260503214517 10 341 4.8 16.1 0.00 0.30 0.03 46 1003.5
20260503213533 10 1 6.4 17.7 0.00 0.36 0.03 43 1003.3
20260503212529 10 297 3.2 12.9 0.00 0.36 0.03 44 1003.2
20260503211524 10 350 4.8 12.9 0.00 0.36 0.03 44 1003.2
20260503210518 10 332 4.8 11.3 0.00 0.38 0.03 42 1002.9
20260503205534 10 344 4.8 20.9 0.00 0.41 0.03 43 1003.0
20260503204529 10 351 6.4 14.5 0.00 0.43 0.03 43 1002.8
20260503203526 10 7 6.4 12.9 0.00 0.43 0.03 44 1002.9
20260503202522 10 331 8.0 12.9 0.00 0.46 0.03 42 1002.7
20260503201516 10 339 4.8 9.7 0.00 0.46 0.03 41 1002.7
20260503200532 10 322 6.4 12.9 0.00 0.46 0.03 40 1002.6
20260503195528 11 339 6.4 12.9 0.00 0.46 0.03 41 1002.7
20260503194524 11 349 6.4 16.1 0.00 0.48 0.03 44 1002.8
20260503193540 10 340 6.4 20.9 0.00 0.48 0.03 42 1002.8